DW0487 Weather Reports


Display with metric or nautical units.
time (UTC)temp
F
wind
direction
speed
MPH
gust
MPH
rain 1hr
in
rain 24hr
in
rain mn
in
humidity
%
barometer
mb
20260903033021 50 186 0.0 0.0 0.00 0.00 0.00 92 1021.4
20260903031520 50 134 0.0 1.0 0.00 0.00 0.00 92 1021.6
20260903030018 51 171 0.0 2.0 0.00 0.00 0.00 90 1021.3
20260903024523 51 240 0.0 2.0 0.00 0.00 0.00 91 1021.3
20260903023017 51 113 0.0 1.0 0.00 0.00 0.00 91 1021.6
20260903021517 51 113 0.0 2.0 0.00 0.00 0.00 91 1021.5
20260903020015 51 207 0.0 4.0 0.00 0.00 0.00 91 1021.3
20260903014518 51 174 0.0 2.0 0.00 0.00 0.00 91 1021.4
20260903013011 52 169 0.0 0.0 0.00 0.00 0.00 91 1021.5
20260903011515 52 169 0.0 1.0 0.00 0.00 0.00 90 1021.4
20260903010010 52 169 0.0 0.0 0.00 0.00 0.00 90 1021.4
20260903004509 53 169 0.0 0.0 0.00 0.00 0.00 90 1021.3
20260903003009 53 166 0.0 5.0 0.00 0.00 0.00 90 1021.2
20260903001505 53 207 0.0 0.0 0.00 0.00 0.00 89 1021.2
20260903000003 54 178 0.0 0.0 0.00 0.00 0.00 88 1021.3
20260902234502 55 178 0.0 2.0 0.00 0.00 0.00 87 1021.2
20260902233102 55 184 1.0 3.0 0.00 0.00 0.00 86 1021.2
20260902231601 56 215 1.0 3.0 0.00 0.00 0.00 86 1021.2
20260902230104 57 250 0.0 3.0 0.00 0.00 0.00 85 1021.3
20260902224609 57 72 0.0 0.0 0.00 0.00 0.00 85 1021.4
20260902223053 57 264 0.0 0.0 0.00 0.00 0.00 85 1021.4
20260902221552 57 264 0.0 0.0 0.00 0.00 0.00 85 1021.3
20260902220051 58 128 0.0 3.0 0.00 0.00 0.00 84 1021.2
20260902214549 58 142 0.0 2.0 0.00 0.00 0.00 83 1021.1
20260902213050 58 285 0.0 0.0 0.00 0.00 0.00 83 1021.1
20260902211547 58 171 0.0 0.0 0.00 0.00 0.00 82 1021.0
20260902210048 59 227 0.0 2.0 0.00 0.00 0.00 81 1021.0
20260902204548 59 162 0.0 3.0 0.00 0.00 0.00 82 1021.0
20260902203048 59 250 1.0 3.0 0.00 0.00 0.00 82 1021.0
20260902201601 59 328 0.0 0.0 0.00 0.00 0.00 81 1020.9
20260902200106 60 276 0.0 2.0 0.00 0.00 0.00 80 1020.7
20260902194545 60 227 0.0 2.0 0.00 0.00 0.00 79 1020.7
20260902193045 60 144 1.0 3.0 0.00 0.00 0.00 78 1020.6
20260902191549 61 188 0.0 0.0 0.00 0.00 0.00 77 1020.6
20260902190057 61 223 0.0 3.0 0.00 0.00 0.00 73 1020.5
20260902184534 62 188 1.0 4.0 0.00 0.00 0.00 73 1020.2
20260902183032 63 239 0.0 0.0 0.00 0.00 0.00 69 1019.9
20260902181533 64 307 0.0 1.0 0.00 0.00 0.00 65 1019.8
20260902180137 65 331 0.0 3.0 0.00 0.00 0.00 61 1019.7
20260902174530 67 5 2.0 4.0 0.00 0.00 0.00 55 1019.2
20260902173029 67 51 3.0 9.0 0.00 0.00 0.00 54 1019.3
20260902171529 67 27 4.0 6.0 0.00 0.00 0.00 53 1019.3
20260902170004 69 46 2.0 6.0 0.00 0.00 0.00 51 1019.3
20260902164503 69 65 3.0 8.0 0.00 0.00 0.00 51 1019.2
20260902163010 70 48 4.0 11.0 0.00 0.00 0.00 49 1019.1
20260902161511 71 45 5.0 10.0 0.00 0.00 0.00 47 1018.8
20260902160014 72 355 7.0 13.0 0.00 0.00 0.00 46 1018.8
20260902154508 73 101 7.0 12.0 0.00 0.00 0.00 57 1018.7
20260902153008 73 10 5.0 9.0 0.00 0.00 0.00 57 1018.6
20260902151507 72 40 6.0 10.0 0.00 0.00 0.00 57 1018.6
20260902150007 73 28 3.0 12.0 0.00 0.00 0.00 56 1018.6
20260902144507 74 45 7.0 12.0 0.00 0.00 0.00 55 1018.6
20260902143005 72 40 6.0 10.0 0.00 0.00 0.00 58 1018.7
20260902141505 72 5 6.0 12.0 0.00 0.00 0.00 58 1018.8
20260902140005 74 21 6.0 11.0 0.00 0.00 0.00 55 1018.6
20260902134505 75 26 6.0 9.0 0.00 0.00 0.00 52 1018.6
20260902133001 75 50 5.0 12.0 0.00 0.00 0.00 52 1018.7
20260902131607 75 82 4.0 8.0 0.00 0.00 0.00 52 1018.9
20260902130059 75 25 6.0 10.0 0.00 0.00 0.00 55 1019.1
20260902124601 74 44 6.0 12.0 0.00 0.00 0.00 56 1019.2
20260902123054 73 40 6.0 11.0 0.00 0.00 0.00 57 1019.4
20260902121552 72 34 4.0 10.0 0.00 0.00 0.00 54 1019.4
20260902120052 73 21 5.0 9.0 0.00 0.00 0.00 55 1019.5
20260902114550 71 31 3.0 9.0 0.00 0.00 0.00 60 1019.6
20260902113106 72 78 7.0 10.0 0.00 0.00 0.00 57 1019.6
20260902111552 71 17 6.0 11.0 0.00 0.00 0.00 60 1019.7
20260902110047 71 351 4.0 10.0 0.00 0.00 0.00 60 1019.7
20260902104545 71 46 5.0 11.0 0.00 0.00 0.00 60 1019.6
20260902103042 70 10 7.0 10.0 0.00 0.00 0.00 61 1019.8
20260902101541 69 17 4.0 8.0 0.00 0.00 0.00 60 1019.8
20260902100038 70 13 3.0 5.0 0.00 0.00 0.00 60 1019.9
20260902094545 69 121 0.0 4.0 0.00 0.00 0.00 61 1020.0
20260902093034 70 311 1.0 4.0 0.00 0.00 0.00 63 1020.2
20260902091541 68 114 0.0 2.0 0.00 0.00 0.00 60 1020.3
20260902090027 67 120 2.0 4.0 0.00 0.00 0.00 69 1020.4
20260902084523 65 355 1.0 4.0 0.00 0.00 0.00 73 1020.5
20260902083019 64 41 0.0 3.0 0.00 0.00 0.00 73 1020.5
20260902081518 63 71 0.0 3.0 0.00 0.00 0.00 76 1020.7
20260902080012 61 5 2.0 5.0 0.00 0.00 0.00 79 1020.6
20260902074508 60 55 1.0 5.0 0.00 0.00 0.00 81 1020.9
20260902073004 58 19 2.0 3.0 0.00 0.00 0.00 82 1020.9
20260902071601 56 78 1.0 2.0 0.00 0.00 0.00 84 1020.9
20260902070101 54 96 0.0 1.0 0.00 0.00 0.00 88 1021.0
20260902064603 52 96 0.0 2.0 0.00 0.00 0.00 89 1021.1
20260902063051 50 134 0.0 0.0 0.00 0.00 0.00 92 1021.2
20260902061551 49 134 0.0 2.0 0.00 0.00 0.00 93 1021.2
20260902060045 46 126 0.0 0.0 0.00 0.00 0.00 94 1021.1
20260902054541 46 126 0.0 0.0 0.00 0.00 0.00 94 1021.2
20260902053043 46 126 0.0 0.0 0.00 0.00 0.00 93 1021.0
20260902051539 46 136 0.0 0.0 0.00 0.00 0.00 94 1021.0
20260902050041 46 119 0.0 0.0 0.00 0.00 0.00 94 1021.0
20260902044537 45 99 0.0 0.0 0.00 0.00 0.00 93 1020.9
20260902043035 46 100 0.0 0.0 0.00 0.00 0.00 93 1020.7
20260902041534 46 100 0.0 0.0 0.00 0.00 0.00 94 1020.6
20260902040033 46 100 0.0 0.0 0.00 0.00 0.00 94 1020.6
20260902034532 46 327 0.0 0.0 0.00 0.00 0.00 94 1020.7